Wind_Speed
20 18 15 15 17 19 18 17 17 17 17 15 15 16 15 15 14 14 15 15 16 16 16 16 15 15 14 14 14 15 14 15 15 15 15 15 14 14 13 12 12 12
19 18 16 17 18 18 18 18 18 18 18 17 16 17 16 16 15 15 16 16 16 17 17 17 17 16 15 15 16 15 15 16 16 16 16 16 15 14 14 12 12 14
18 17 16 17 18 18 18 18 18 19 20 19 19 18 17 17 17 17 17 17 17 18 18 18 18 17 17 17 16 16 17 17 16 16 16 17 16 16 15 13 13 14
18 18 17 18 18 18 18 18 19 21 21 21 21 20 19 18 18 18 18 18 19 19 19 19 19 18 18 18 17 17 18 17 17 17 17 18 17 17 17 15 14 15
18 18 18 19 20 19 17 17 20 23 21 19 21 22 21 20 19 19 20 20 20 20 20 20 20 19 19 19 18 18 18 18 18 18 19 19 19 19 18 16 15 16
17 18 19 20 20 19 18 18 20 21 20 18 21 24 24 22 21 21 21 22 22 22 21 21 21 20 20 20 20 20 20 20 20 20 20 20 20 20 19 17 16 16
16 17 18 19 20 19 19 20 21 21 19 18 22 25 26 24 22 22 23 24 24 23 23 23 22 22 22 21 21 21 21 21 21 20 20 21 21 21 20 19 17 17
15 16 17 19 20 20 20 20 21 22 20 20 23 26 26 24 23 23 24 24 24 25 24 24 24 24 24 22 22 22 22 22 21 21 22 22 21 21 21 21 19 18
14 15 17 19 20 20 21 20 22 23 23 23 25 26 25 25 24 24 25 25 25 26 26 26 26 26 26 25 23 23 23 23 23 22 23 23 22 22 23 23 22 21
14 16 17 18 20 20 21 21 23 24 25 25 26 26 26 25 24 25 25 25 26 27 28 29 28 27 28 28 26 25 25 25 24 24 24 24 24 24 24 24 23 23
13 15 16 17 19 20 20 21 22 23 24 24 25 26 26 26 25 25 26 26 27 28 30 32 32 31 31 30 29 28 27 27 26 25 25 26 26 25 25 25 24 24
12 12 14 16 18 19 20 20 21 22 22 22 23 24 25 25 25 26 27 27 28 29 30 33 34 35 35 33 32 31 30 29 28 27 27 27 27 27 27 26 25 25
13 14 14 16 18 19 21 21 21 22 22 22 23 24 25 25 25 27 28 29 30 30 31 33 34 34 36 37 34 32 31 31 29 28 28 28 28 29 28 27 26 26
16 16 17 18 20 21 22 23 23 23 24 24 24 26 27 26 26 27 28 29 30 31 31 33 34 34 36 37 36 34 33 32 30 29 29 29 30 30 30 29 28 27
16 17 18 19 20 21 22 23 23 23 24 25 26 27 27 27 27 27 27 28 30 31 31 33 34 34 33 35 37 36 35 34 33 33 32 31 31 31 31 30 30 29
16 16 17 18 19 20 20 21 22 23 23 23 25 26 26 26 27 26 26 27 29 31 32 32 35 34 32 32 35 37 37 37 36 36 35 33 33 33 32 31 31 31
16 17 17 18 19 19 19 20 21 21 22 22 23 24 23 23 24 25 25 26 28 30 31 32 35 35 32 32 34 37 38 39 39 39 38 36 35 34 34 33 33 33
16 17 18 18 19 18 18 19 20 20 20 21 21 21 20 20 22 23 23 25 27 29 29 30 34 37 36 33 35 37 38 39 40 41 41 39 37 36 36 35 34 35
17 17 17 18 18 18 17 17 18 18 18 18 19 18 18 19 20 21 22 23 25 27 29 30 32 36 37 35 35 37 38 39 41 42 42 41 38 38 37 36 35 35
16 17 17 17 18 18 17 17 17 17 17 17 18 18 18 19 20 20 20 21 23 25 29 30 30 34 37 37 37 37 38 39 41 42 43 42 40 39 38 37 37 37
16 17 17 17 18 17 17 17 17 17 16 17 17 18 19 19 19 19 20 21 22 23 26 28 30 33 37 38 38 37 37 38 40 42 43 42 41 41 40 39 38 38
15 16 17 17 17 17 17 17 17 17 17 17 17 16 18 19 19 19 20 20 21 22 24 26 29 32 36 38 38 36 36 36 38 41 42 42 41 40 40 40 38 37
14 15 16 17 17 17 17 17 16 16 17 18 17 15 14 17 18 18 18 18 20 22 25 27 29 32 35 38 38 37 35 35 37 40 42 41 40 40 41 39 38 37
14 14 15 16 16 16 16 16 16 16 17 17 17 15 12 13 15 16 15 15 18 21 24 25 27 31 35 37 37 36 35 35 37 40 41 40 39 39 39 38 38 37
13 14 14 15 15 15 15 15 15 15 15 16 15 14 12 12 13 14 15 15 18 20 21 21 23 28 32 36 36 35 34 35 37 39 39 38 38 38 37 37 38 37
12 12 13 14 14 14 14 13 14 14 14 14 14 13 12 11 12 13 15 15 16 18 19 20 22 25 29 31 32 33 33 34 35 37 38 37 37 37 37 37 37 37
Wind_Direction
232 229 227 226 230 236 236 236 239 240 235 229 228 227 225 225 226 228 230 231 231 230 228 227 230 231 231 235 236 233 230 229 226 227 233 233 229 227 221 214 215 216
237 232 226 225 227 229 231 232 233 236 238 237 232 231 230 227 228 231 232 233 234 235 233 230 230 231 231 233 235 235 234 232 230 228 232 236 234 231 228 220 217 218
247 243 236 234 232 227 227 231 231 233 239 243 240 235 233 231 232 234 235 236 236 237 237 234 231 230 232 235 235 237 238 235 235 233 232 236 237 235 233 226 222 224
244 247 249 248 242 232 229 232 234 233 234 243 247 240 234 236 236 236 237 240 240 240 239 237 234 230 230 234 237 240 242 239 240 240 235 236 238 238 237 229 224 229
240 243 248 251 248 240 234 233 235 235 232 237 243 241 238 239 237 237 241 244 244 243 242 241 238 233 230 230 234 239 243 242 241 243 240 238 237 238 240 234 226 229
243 242 243 248 250 248 243 238 236 237 236 238 243 242 243 243 239 240 244 246 247 246 245 245 243 240 234 230 229 232 237 240 241 243 243 242 240 240 241 240 233 231
242 242 243 246 249 250 247 245 244 242 239 240 246 247 247 248 244 242 244 245 246 247 248 247 246 245 241 236 231 230 233 236 239 243 244 244 244 243 243 243 240 237
242 240 242 244 246 247 245 246 249 250 246 242 246 248 249 250 249 247 247 248 249 250 249 249 249 249 246 242 238 233 233 233 235 239 242 244 246 244 243 244 244 243
247 242 241 242 245 246 245 244 245 249 251 248 247 249 250 253 254 252 251 251 251 250 249 248 249 250 249 247 243 239 236 234 233 236 240 243 244 243 242 243 244 244
250 245 243 244 248 251 251 249 247 247 249 249 250 252 254 256 256 255 254 253 252 250 249 247 244 244 247 247 245 243 239 235 233 234 237 240 242 243 242 242 243 244
260 253 250 252 254 257 258 257 256 256 254 253 254 256 258 259 258 257 255 254 252 252 252 249 243 240 241 242 242 243 241 238 234 234 235 237 239 241 242 242 242 244
281 270 264 261 262 264 265 264 264 264 262 262 262 262 262 262 259 257 256 253 250 250 251 252 249 243 239 238 239 239 240 239 237 234 234 235 237 239 240 241 241 242
288 280 273 269 269 270 271 271 270 269 268 268 268 267 265 263 258 256 254 252 250 248 249 252 253 247 242 239 238 237 238 240 240 237 235 235 237 239 240 240 241 241
288 284 280 276 275 274 275 275 274 273 272 270 268 266 265 264 261 257 254 250 250 250 249 251 253 250 244 239 237 238 239 240 241 241 238 236 236 237 238 239 240 240
288 286 284 282 280 277 277 277 276 274 272 270 268 265 264 263 262 259 253 250 252 252 251 251 252 251 245 239 236 238 241 240 239 241 241 238 237 237 237 239 240 240
292 291 288 287 284 280 279 279 278 276 275 272 269 265 263 261 260 258 252 249 251 252 251 251 250 247 243 238 236 237 240 240 239 240 240 238 237 237 237 239 240 240
299 297 294 292 289 284 282 281 280 280 279 276 271 266 263 259 257 256 253 250 249 248 249 249 245 241 239 237 236 237 240 240 240 240 240 238 237 237 237 238 238 239
306 303 299 296 293 289 286 283 283 283 281 279 273 267 261 255 253 253 251 249 247 245 245 246 242 236 235 235 234 237 240 241 239 239 239 238 237 237 237 238 238 240
311 308 305 300 296 294 292 290 289 288 285 281 274 264 255 250 249 248 246 248 248 243 242 244 240 234 233 234 234 236 240 241 239 239 238 237 238 238 238 239 240 241
314 312 310 306 301 299 298 297 296 293 290 284 274 263 253 248 246 244 243 246 247 243 242 244 241 234 231 233 234 235 238 239 238 237 236 236 238 238 238 239 240 241
315 315 314 312 309 306 304 303 302 300 296 290 281 269 257 250 246 243 242 243 245 245 245 245 241 233 228 229 233 235 236 237 236 235 234 235 237 239 240 240 241 243
313 314 315 316 315 313 310 308 308 306 302 299 293 279 263 253 248 244 241 242 242 243 245 245 240 233 228 230 234 235 235 236 235 233 232 233 236 238 240 241 242 244
310 312 314 315 316 317 315 313 311 310 308 307 305 295 273 257 251 246 240 238 237 238 242 243 237 230 229 232 235 235 235 237 236 232 232 233 235 237 239 240 242 244
308 308 310 312 314 316 318 317 314 312 313 315 315 309 290 266 255 249 240 236 239 243 247 245 237 229 226 228 232 234 237 239 236 232 231 233 236 238 239 240 242 244
309 307 307 309 311 313 317 319 316 314 316 319 320 317 303 281 266 258 251 248 251 256 255 249 239 232 227 227 231 236 240 241 238 234 232 234 237 239 240 241 242 244
308 309 307 307 308 310 315 318 318 318 319 319 321 322 313 296 279 267 262 262 264 262 259 250 240 233 229 229 233 237 241 243 240 233 231 233 236 238 239 241 244 246
Height
5879 5880 5882 5884 5885 5888 5890 5890 5892 5893 5894 5895 5895 5897 5897 5899 5900 5902 5904 5905 5907 5908 5910 5911 5913 5915 5916 5917 5918 5918 5920 5921 5922 5923 5924 5925 5926 5927 5928 5929 5930 5931
5878 5878 5880 5881 5882 5884 5886 5887 5889 5891 5893 5894 5894 5895 5896 5897 5898 5900 5901 5903 5904 5906 5908 5909 5911 5912 5914 5915 5916 5917 5918 5920 5921 5921 5922 5923 5924 5925 5926 5927 5928 5929
5878 5878 5879 5879 5880 5882 5883 5885 5887 5888 5890 5892 5892 5892 5893 5894 5896 5897 5899 5901 5902 5904 5905 5907 5909 5910 5911 5912 5914 5915 5916 5918 5919 5920 5921 5921 5922 5923 5924 5926 5927 5928
5876 5876 5877 5878 5879 5879 5881 5883 5885 5885 5887 5890 5891 5892 5892 5893 5894 5895 5896 5898 5900 5901 5903 5905 5907 5908 5909 5910 5911 5913 5914 5915 5917 5918 5919 5920 5921 5922 5923 5925 5926 5926
5873 5874 5875 5877 5877 5878 5879 5882 5883 5882 5884 5886 5888 5890 5890 5891 5892 5893 5894 5896 5897 5899 5901 5902 5904 5906 5908 5909 5910 5911 5912 5913 5915 5916 5918 5919 5920 5921 5922 5924 5925 5925
5870 5872 5873 5874 5875 5876 5878 5880 5881 5881 5882 5883 5885 5887 5887 5888 5889 5890 5891 5893 5895 5897 5898 5900 5901 5903 5905 5907 5908 5909 5910 5911 5913 5914 5916 5917 5918 5919 5920 5921 5923 5924
5870 5870 5871 5872 5873 5875 5877 5878 5878 5879 5880 5880 5882 5885 5886 5886 5886 5887 5889 5891 5892 5894 5896 5897 5899 5900 5902 5904 5906 5907 5908 5909 5911 5912 5913 5915 5916 5917 5918 5919 5921 5922
5868 5869 5870 5871 5872 5874 5875 5875 5875 5875 5876 5877 5880 5883 5883 5883 5884 5886 5887 5889 5890 5892 5893 5895 5897 5898 5899 5901 5902 5904 5905 5906 5908 5909 5910 5911 5913 5914 5915 5917 5919 5920
5866 5867 5868 5869 5870 5871 5872 5873 5873 5873 5873 5875 5877 5879 5880 5880 5882 5883 5884 5886 5887 5888 5889 5891 5893 5895 5896 5898 5900 5901 5902 5903 5905 5906 5907 5908 5910 5912 5913 5915 5917 5918
5865 5866 5866 5867 5867 5868 5869 5870 5871 5871 5872 5874 5875 5876 5876 5877 5879 5880 5881 5882 5884 5885 5886 5886 5888 5891 5893 5895 5897 5898 5899 5900 5902 5903 5905 5906 5907 5909 5911 5913 5914 5916
5862 5863 5864 5864 5864 5865 5866 5867 5867 5868 5870 5871 5871 5872 5873 5874 5876 5877 5878 5879 5880 5881 5882 5883 5884 5886 5888 5890 5893 5895 5896 5897 5899 5901 5902 5904 5905 5907 5908 5910 5912 5914
5859 5860 5861 5861 5861 5861 5862 5863 5864 5864 5866 5866 5867 5868 5869 5871 5872 5873 5874 5875 5875 5876 5878 5879 5880 5882 5885 5886 5888 5891 5893 5894 5896 5898 5900 5901 5903 5904 5906 5908 5909 5911
5857 5858 5858 5859 5859 5859 5859 5860 5861 5861 5862 5862 5863 5864 5864 5866 5867 5868 5869 5870 5871 5872 5874 5875 5876 5878 5881 5883 5885 5887 5890 5892 5893 5895 5897 5898 5900 5901 5903 5904 5906 5908
5855 5856 5856 5857 5857 5856 5856 5857 5857 5858 5858 5859 5859 5860 5860 5861 5862 5864 5865 5865 5866 5868 5870 5871 5871 5873 5876 5879 5881 5884 5886 5888 5890 5891 5893 5895 5896 5898 5899 5901 5903 5904
5854 5854 5854 5854 5854 5854 5854 5854 5854 5855 5855 5855 5855 5856 5857 5857 5858 5859 5860 5861 5862 5863 5865 5867 5867 5869 5872 5875 5878 5880 5882 5884 5886 5887 5889 5891 5892 5894 5896 5898 5899 5901
5853 5853 5853 5852 5852 5851 5851 5851 5851 5851 5851 5852 5851 5852 5853 5853 5853 5854 5855 5856 5857 5858 5860 5861 5863 5864 5867 5870 5873 5875 5877 5879 5881 5883 5884 5886 5888 5890 5892 5894 5896 5897
5852 5851 5851 5851 5850 5849 5849 5848 5848 5848 5848 5848 5848 5848 5848 5849 5849 5850 5850 5851 5853 5854 5855 5856 5858 5860 5863 5865 5868 5870 5872 5874 5877 5879 5880 5882 5884 5886 5888 5890 5891 5893
5851 5850 5850 5849 5848 5847 5846 5845 5845 5845 5845 5845 5844 5844 5844 5845 5845 5845 5845 5847 5848 5850 5852 5852 5853 5855 5858 5860 5862 5865 5867 5869 5872 5874 5876 5878 5880 5882 5884 5886 5887 5889
5849 5849 5848 5847 5846 5845 5844 5843 5843 5843 5842 5841 5841 5841 5840 5840 5840 5841 5841 5843 5844 5846 5847 5848 5849 5851 5855 5857 5858 5860 5862 5864 5867 5869 5871 5874 5876 5878 5880 5882 5883 5884
5848 5848 5847 5846 5845 5844 5843 5842 5841 5840 5840 5838 5838 5837 5837 5837 5837 5837 5838 5839 5840 5842 5843 5844 5845 5847 5850 5853 5854 5856 5858 5859 5861 5863 5866 5870 5872 5874 5875 5877 5878 5880
5847 5846 5846 5845 5844 5843 5842 5840 5839 5838 5837 5836 5835 5834 5834 5834 5834 5834 5834 5835 5836 5837 5838 5839 5841 5842 5844 5847 5848 5851 5852 5854 5856 5858 5861 5865 5867 5869 5871 5872 5874 5876
5845 5844 5844 5843 5842 5841 5840 5839 5838 5837 5835 5834 5833 5832 5831 5831 5831 5831 5831 5831 5832 5833 5834 5835 5836 5837 5839 5841 5843 5845 5847 5849 5851 5854 5856 5859 5862 5864 5866 5868 5870 5873
5844 5843 5842 5841 5841 5840 5839 5838 5837 5835 5834 5832 5831 5830 5829 5829 5828 5828 5828 5828 5829 5830 5830 5831 5832 5834 5836 5837 5839 5841 5843 5845 5848 5849 5852 5855 5858 5860 5862 5864 5866 5868
5842 5842 5841 5840 5839 5838 5838 5837 5836 5834 5833 5831 5830 5829 5828 5827 5827 5826 5826 5826 5827 5827 5827 5827 5829 5831 5832 5833 5835 5837 5839 5841 5843 5845 5848 5851 5853 5855 5858 5860 5862 5864
5841 5841 5840 5839 5838 5837 5836 5836 5835 5833 5832 5830 5829 5828 5826 5826 5826 5825 5824 5824 5824 5824 5824 5824 5826 5827 5828 5830 5832 5834 5836 5838 5839 5842 5845 5847 5849 5851 5854 5857 5858 5860
5839 5839 5838 5837 5836 5835 5835 5835 5834 5832 5831 5830 5828 5827 5826 5825 5825 5825 5824 5823 5823 5822 5822 5822 5823 5824 5825 5827 5829 5831 5832 5834 5836 5839 5841 5844 5845 5848 5851 5853 5855 5857